Weather History for KATS - February, 2013

Change the Weather History Date:

Thursday, February 14, 2013

  Actual Average (KROW) Record (KROW)
Temperature  
Mean Temperature 42 °F 46 °F  
Max Temperature 59 °F 61 °F 84 °F (1979)
Min Temperature 24 °F 31 °F -4 °F (1905)
Degree Days  
Heating Degree Days 24 19  
Month to date heating degree days 292  
Since 1 July heating degree days 2458  
Cooling Degree Days 0 0  
Month to date cooling degree days 0  
Year to date cooling degree days 0  
Moisture  
Dew Point 10 °F    
Average Humidity 29    
Maximum Humidity 61    
Minimum Humidity 15    
Precipitation  
Precipitation 0.00 in 0.02 in 0.51 in (1962)
Month to date precipitation 0.21  
Year to date precipitation 0.59  
Sea Level Pressure  
Sea Level Pressure 30.04 in    
Wind  
Wind Speed 6 mph (North)    
Max Wind Speed 13 mph    
Max Gust Speed -    
Visibility 10 miles    
Events      
T = Trace of Precipitation, MM = Missing Value Source: NWS Daily Summary

Daily Weather History Graph

Daily Weather History Graph

Search for Another Location

Airport or City:

Trip Planner

Search our weather history database for the weather conditions in past years. The results will help you decide how hot, cold, wet, or windy it might be!

Date:

Astronomy

Feb. 14, 2013 Rise Set
Actual Time 6:41 AM MST 5:42 PM MST
Civil Twilight 6:16 AM MST 6:07 PM MST
Nautical Twilight 5:47 AM MST 6:36 PM MST
Astronomical Twilight 5:18 AM MST 7:05 PM MST
Moon 9:03 AM MST (2/14) 10:27 PM MST (2/14)
Length of Visible Light 11h 51m
Length of Day
11h 00m
Waxing Crescent, 22% of the Moon is Illuminated
Feb 14
Waxing Crescent
Feb 17
First Quarter
Feb 25
Full
Mar 4
Last Quarter
Mar 11
New

Hourly Weather History & Observations

Time (MST) Temp. Windchill Dew Point Humidity Pressure Visibility Wind Dir Wind Speed Gust Speed Precip Events Conditions
12:15 AM 35.6 °F 28.0 °F 5.0 °F 28% 30.01 in 10.0 mi West 10.4 mph - N/A   Clear
12:35 AM 37.4 °F 32.8 °F 5.0 °F 26% 30.01 in 10.0 mi NW 5.8 mph - N/A   Clear
12:55 AM 32.0 °F 26.4 °F 6.8 °F 35% 30.02 in 10.0 mi NNE 5.8 mph - N/A   Clear
1:15 AM 32.0 °F 27.5 °F 6.8 °F 35% 30.02 in 10.0 mi NNW 4.6 mph - N/A   Clear
1:35 AM 28.4 °F - 5.0 °F 37% 30.02 in 10.0 mi Calm Calm - N/A   Clear
1:55 AM 32.0 °F - 6.8 °F 35% 30.02 in 10.0 mi Calm Calm - N/A   Clear
2:15 AM 28.4 °F 24.6 °F 5.0 °F 37% 30.02 in 10.0 mi SW 3.5 mph - N/A   Clear
2:35 AM 32.0 °F 24.8 °F 6.8 °F 35% 30.02 in 10.0 mi WNW 8.1 mph - N/A   Clear
2:55 AM 33.8 °F 24.8 °F 6.8 °F 32% 30.01 in 10.0 mi WNW 12.7 mph - N/A   Clear
3:15 AM 35.6 °F 30.7 °F 6.8 °F 30% 30.01 in 10.0 mi NW 5.8 mph - N/A   Clear
3:35 AM 28.4 °F 23.3 °F 6.8 °F 40% 30.01 in 10.0 mi SW 4.6 mph - N/A   Clear
3:55 AM 28.4 °F - 6.8 °F 40% 30.01 in 10.0 mi Calm Calm - N/A   Clear
4:15 AM 28.4 °F - 6.8 °F 40% 30.01 in 10.0 mi Calm Calm - N/A   Clear
4:35 AM 26.6 °F 17.5 °F 5.0 °F 40% 30.02 in 10.0 mi North 9.2 mph - N/A   Clear
4:55 AM 26.6 °F 20.0 °F 6.8 °F 43% 30.02 in 10.0 mi North 5.8 mph - N/A   Clear
5:15 AM 24.8 °F 17.9 °F 6.8 °F 46% 30.03 in 10.0 mi NW 5.8 mph - N/A   Clear
5:35 AM 24.8 °F 19.1 °F 6.8 °F 46% 30.04 in 10.0 mi NW 4.6 mph - N/A   Clear
5:55 AM 26.6 °F 19.1 °F 6.8 °F 43% 30.04 in 10.0 mi NNW 6.9 mph - N/A   Clear
6:15 AM 24.8 °F 15.3 °F 5.0 °F 43% 30.05 in 10.0 mi NNW 9.2 mph - N/A   Clear
6:35 AM 26.6 °F 19.1 °F 6.8 °F 43% 30.05 in 10.0 mi WNW 6.9 mph - N/A   Clear
6:55 AM 26.6 °F 16.8 °F 6.8 °F 43% 30.05 in 10.0 mi West 10.4 mph - N/A   Clear
7:15 AM 30.2 °F 25.4 °F 6.8 °F 37% 30.06 in 10.0 mi West 4.6 mph - N/A   Clear
7:35 AM 32.0 °F 27.5 °F 8.6 °F 38% 30.06 in 10.0 mi WNW 4.6 mph - N/A   Clear
7:55 AM 33.8 °F 28.6 °F 8.6 °F 35% 30.07 in 10.0 mi NW 5.8 mph - N/A   Clear
8:15 AM 37.4 °F 33.8 °F 8.6 °F 30% 30.08 in 10.0 mi North 4.6 mph - N/A   Clear
8:35 AM 39.2 °F 37.0 °F 10.4 °F 31% 30.08 in 10.0 mi NNE 3.5 mph - N/A   Clear
8:55 AM 41.0 °F 39.0 °F 10.4 °F 29% 30.08 in 10.0 mi NE 3.5 mph - N/A   Clear
9:15 AM 41.0 °F 38.0 °F 10.4 °F 29% 30.08 in 10.0 mi NE 4.6 mph - N/A   Clear
9:35 AM 42.8 °F 40.1 °F 12.2 °F 29% 30.08 in 10.0 mi ESE 4.6 mph - N/A   Clear
9:55 AM 44.6 °F - 12.2 °F 27% 30.08 in 10.0 mi Calm Calm - N/A   Clear
10:15 AM 46.4 °F 44.3 °F 12.2 °F 25% 30.07 in 10.0 mi ENE 4.6 mph - N/A   Clear
10:35 AM 48.2 °F - 12.2 °F 24% 30.07 in 10.0 mi NE 4.6 mph - N/A   Clear
10:55 AM 48.2 °F - 12.2 °F 24% 30.06 in 10.0 mi ENE 5.8 mph - N/A   Clear
11:15 AM 50.0 °F - 12.2 °F 22% 30.04 in 10.0 mi NNE 6.9 mph - N/A   Clear
11:35 AM 50.0 °F - 12.2 °F 22% 30.03 in 10.0 mi North 5.8 mph - N/A   Clear
11:55 AM 53.6 °F - 12.2 °F 19% 30.02 in 10.0 mi NNE 4.6 mph - N/A   Clear
12:15 PM 53.6 °F - 12.2 °F 19% 30.01 in 10.0 mi SE 3.5 mph - N/A   Clear
12:35 PM 55.4 °F - 12.2 °F 18% 30.00 in 10.0 mi Calm Calm - N/A   Clear
12:55 PM 57.2 °F - 10.4 °F 16% 29.99 in 10.0 mi SW 4.6 mph - N/A   Clear
1:15 PM 57.2 °F - 10.4 °F 16% 29.98 in 10.0 mi Calm Calm - N/A   Clear
1:35 PM 57.2 °F - 10.4 °F 16% 29.98 in 10.0 mi SSE 5.8 mph - N/A   Clear
1:55 PM 57.2 °F - 10.4 °F 16% 29.97 in 10.0 mi North 3.5 mph - N/A   Clear
2:15 PM 59.0 °F - 10.4 °F 15% 29.97 in 10.0 mi South 3.5 mph - N/A   Clear
2:35 PM 59.0 °F - 10.4 °F 15% 29.97 in 10.0 mi SE 3.5 mph - N/A   Clear
2:55 PM 59.0 °F - 10.4 °F 15% 29.97 in 10.0 mi NNE 6.9 mph - N/A   Clear
3:15 PM 59.0 °F - 10.4 °F 15% 29.97 in 10.0 mi Calm Calm - N/A   Clear
3:35 PM 59.0 °F - 10.4 °F 15% 29.97 in 10.0 mi East 4.6 mph - N/A   Clear
3:55 PM 59.0 °F - 10.4 °F 15% 29.98 in 10.0 mi ENE 4.6 mph - N/A   Clear
4:15 PM 59.0 °F - 10.4 °F 15% 29.97 in 10.0 mi ENE 5.8 mph - N/A   Clear
4:35 PM 59.0 °F - 10.4 °F 15% 29.97 in 10.0 mi ENE 3.5 mph - N/A   Clear
4:55 PM 59.0 °F - 10.4 °F 15% 29.97 in 10.0 mi ENE 5.8 mph - N/A   Clear
5:15 PM 59.0 °F - 10.4 °F 15% 29.96 in 10.0 mi ENE 3.5 mph - N/A   Clear
5:35 PM 57.2 °F - 12.2 °F 17% 29.96 in 10.0 mi East 4.6 mph - N/A   Clear
5:55 PM 57.2 °F - 10.4 °F 16% 29.97 in 10.0 mi ENE 4.6 mph - N/A   Clear
6:15 PM 53.6 °F - 10.4 °F 18% 29.98 in 10.0 mi ENE 3.5 mph - N/A   Clear
6:35 PM 50.0 °F - 10.4 °F 20% 29.99 in 10.0 mi ENE 5.8 mph - N/A   Clear
6:55 PM 50.0 °F - 10.4 °F 20% 30.01 in 10.0 mi North 4.6 mph - N/A   Clear
7:15 PM 48.2 °F - 10.4 °F 22% 30.02 in 10.0 mi North 6.9 mph - N/A   Clear
7:35 PM 48.2 °F - 10.4 °F 22% 30.02 in 10.0 mi North 6.9 mph - N/A   Clear
7:55 PM 44.6 °F 39.7 °F 10.4 °F 25% 30.04 in 10.0 mi NW 9.2 mph - N/A   Clear
8:15 PM 42.8 °F 37.5 °F 8.6 °F 25% 30.05 in 10.0 mi NW 9.2 mph - N/A   Clear
8:35 PM 42.8 °F 38.0 °F 8.6 °F 25% 30.06 in 10.0 mi NNW 8.1 mph - N/A   Clear
8:55 PM 42.8 °F 37.5 °F 10.4 °F 27% 30.07 in 10.0 mi North 9.2 mph - N/A   Clear
9:15 PM 44.6 °F 38.8 °F 14.0 °F 29% 30.09 in 10.0 mi NNE 11.5 mph - N/A   Clear
9:35 PM 42.8 °F 38.0 °F 14.0 °F 31% 30.10 in 10.0 mi NNE 8.1 mph - N/A   Clear
9:55 PM 41.0 °F 35.8 °F 14.0 °F 33% 30.12 in 10.0 mi North 8.1 mph - N/A   Clear
10:15 PM 39.2 °F 32.5 °F 17.6 °F 42% 30.14 in 10.0 mi NNW 10.4 mph - N/A   Clear
10:35 PM 39.2 °F 32.0 °F 19.4 °F 45% 30.16 in 10.0 mi North 11.5 mph - N/A   Clear
10:55 PM 39.2 °F 32.5 °F 23.0 °F 52% 30.18 in 10.0 mi NNW 10.4 mph - N/A   Clear
11:15 PM 39.2 °F 33.6 °F 24.8 °F 56% 30.20 in 10.0 mi NNW 8.1 mph - N/A   Clear
11:35 PM 39.2 °F 32.0 °F 26.6 °F 61% 30.22 in 10.0 mi NNW 11.5 mph - N/A   Clear
11:55 PM 37.4 °F 29.8 °F 24.8 °F 60% 30.23 in 10.0 mi NNW 11.5 mph - N/A   Clear